Estación de Odessa

Ultimos registro cada 15 minutos 29
Estación Fecha / Hora Temperatura Humedad Lluvia Velocidad Dirección Radiación Presion
29 Odessa 05-05-2026 07:00 11,1 91 0 0,4 26 0 1014,7
28 Odessa 05-05-2026 06:45 11,2 91 0 1,3 278 0 1016
27 Odessa 05-05-2026 06:30 11,1 93 0 1,8 41 0 1015,6
26 Odessa 05-05-2026 06:15 10,7 94 0 2,7 97 0 1015
25 Odessa 05-05-2026 06:00 10,3 93 0 0,9 1 0 1017
24 Odessa 05-05-2026 05:45 10,4 93 0 0,4 323 0 1016,3
23 Odessa 05-05-2026 05:30 10,5 93 0 0,9 265 0 1016,2
22 Odessa 05-05-2026 05:15 10,3 93 0 1,3 137 0 1015,8
21 Odessa 05-05-2026 05:00 10,2 94 0 0 300 0 1016,7
20 Odessa 05-05-2026 04:45 9,8 93 0 0 101 0 1016,6
19 Odessa 05-05-2026 04:30 9,8 93 0 0 82 0 1016,6
18 Odessa 05-05-2026 04:15 9,6 93 0 0 107 0 1016,5
17 Odessa 05-05-2026 04:00 9,4 93 0 0 107 0 1015,9
16 Odessa 05-05-2026 03:45 9,3 93 0 0 123 0 1015,9
15 Odessa 05-05-2026 03:30 9,3 93 0 0 143 0 1016,1
14 Odessa 05-05-2026 03:15 9,3 93 0 0 106 0 1016,1
13 Odessa 05-05-2026 03:00 9,2 94 0 0 106 0 1016,1
12 Odessa 05-05-2026 02:45 9,1 94 0 0 106 0 1016,2
11 Odessa 05-05-2026 02:30 9,1 94 0 0 106 0 1016,4
10 Odessa 05-05-2026 02:15 9,2 94 0 0 106 0 1016,6
9 Odessa 05-05-2026 02:00 9,1 94 0 0 106 0 1016,6
8 Odessa 05-05-2026 01:45 8,9 94 0 0 106 0 1016,5
7 Odessa 05-05-2026 01:30 8,7 94 0 0 106 0 1016,5
6 Odessa 05-05-2026 01:15 8,5 93 0 0 106 0 1016,6
5 Odessa 05-05-2026 01:00 8,4 93 0 0 106 0 1016,7
4 Odessa 05-05-2026 00:45 8,9 93 0 0 65 0 1016,9
3 Odessa 05-05-2026 00:30 9,2 93 0 0 65 0 1016,9
2 Odessa 05-05-2026 00:15 9,4 93 0 0 65 0 1017,1
1 Odessa 05-05-2026 00:00 9,5 93 0 0 65 0 1017